Weather History for St. Francis, KS

Change the Weather History Date:

Saturday, October 12, 2013

  Actual Average Record
Temperature  
Mean Temperature 51 °F -  
Max Temperature 59 °F 71 °F 59 °F (2013)
Min Temperature 43 °F 37 °F 43 °F (2013)
Degree Days  
Heating Degree Days 14    
Growing Degree Days 1 (Base 50)    
Moisture  
Dew Point 37 °F    
Average Humidity 64    
Maximum Humidity 89    
Minimum Humidity 36    
Precipitation  
Precipitation 0.00 in - - ()
Sea Level Pressure  
Sea Level Pressure 30.18 in    
Wind  
Wind Speed 5 mph (SE)    
Max Wind Speed 15 mph    
Max Gust Speed 17 mph    
Visibility 10 miles    
Events Rain    
Averages and records for this station are not official NWS values.
T = Trace of Precipitation, MM = Missing Value Source: NWS Daily Summary

Daily Weather History Graph

Daily Weather History Graph

Search for Another Location

Airport:

Trip Planner

Search our weather history database for the weather conditions in past years. The results will help you decide how hot, cold, wet, or windy it might be!

Date:

Astronomy

Oct. 12, 2013 Rise Set
Actual Time 7:54 AM CDT 7:11 PM CDT
Civil Twilight 7:27 AM CDT 7:38 PM CDT
Nautical Twilight 6:56 AM CDT 8:10 PM CDT
Astronomical Twilight 6:24 AM CDT 8:41 PM CDT
Moon 3:22 PM CDT (10/12) 1:01 AM CDT (10/12)
Length of Visible Light 12h 11m
Length of Day
11h 17m
First Quarter, 59% of the Moon is Illuminated
Oct 12
First Quarter
Oct 18
Full
Oct 26
Last Quarter
Nov 3
New
Nov 9
First Quarter

Hourly Weather History & Observations

Time (CDT) Temp. Windchill Dew Point Humidity Pressure Visibility Wind Dir Wind Speed Gust Speed Precip Events Conditions
12:15 AM 49.1 °F - 39.7 °F 70% 30.07 in 10.0 mi North 3.5 mph - N/A   Mostly Cloudy
12:35 AM 46.9 °F - 41.7 °F 82% 30.07 in 10.0 mi NNW 3.5 mph - N/A   Mostly Cloudy
12:55 AM 46.6 °F - 42.4 °F 85% 30.08 in 10.0 mi West 3.5 mph - N/A   Mostly Cloudy
1:15 AM 46.4 °F 44.3 °F 42.4 °F 86% 30.08 in 10.0 mi WSW 4.6 mph - N/A   Mostly Cloudy
1:35 AM 46.4 °F 44.3 °F 42.4 °F 86% 30.08 in 10.0 mi SSW 4.6 mph - N/A   Overcast
1:55 AM 46.4 °F 44.3 °F 42.1 °F 85% 30.08 in 10.0 mi SSW 4.6 mph - N/A   Overcast
2:15 AM 46.6 °F - 42.1 °F 84% 30.08 in 10.0 mi WSW 3.5 mph - N/A   Overcast
2:35 AM 46.8 °F - 41.9 °F 83% 30.09 in 10.0 mi West 3.5 mph - N/A   Overcast
2:55 AM 46.4 °F 44.3 °F 42.8 °F 87% 30.11 in 10.0 mi WSW 4.6 mph - N/A   Overcast
3:15 AM 46.4 °F 44.3 °F 43.3 °F 89% 30.10 in 10.0 mi SW 4.6 mph - N/A   Light Drizzle
6:15 AM 44.8 °F 41.6 °F 39.2 °F 81% 30.14 in 10.0 mi North 5.8 mph - N/A   Overcast
6:35 AM 45.1 °F 40.8 °F 39.2 °F 80% 30.15 in 10.0 mi North 8.1 mph - N/A Rain Light Rain
6:55 AM 44.6 °F 42.2 °F 38.5 °F 79% 30.16 in 10.0 mi North 4.6 mph - N/A Rain Light Rain
7:15 AM 44.6 °F 41.4 °F 37.9 °F 77% 30.16 in 10.0 mi NNE 5.8 mph - N/A Rain Light Rain
7:35 AM 43.7 °F 40.3 °F 38.1 °F 81% 30.16 in 10.0 mi North 5.8 mph - N/A   Overcast
7:55 AM 44.2 °F - 37.9 °F 79% 30.17 in 10.0 mi Calm Calm - N/A   Overcast
8:15 AM 44.4 °F - 38.8 °F 81% 30.18 in 10.0 mi Calm Calm - N/A Rain Light Rain
8:35 AM 44.8 °F - 37.2 °F 75% 30.19 in 10.0 mi Calm Calm - N/A   Overcast
8:55 AM 45.1 °F 43.7 °F 39.4 °F 80% 30.20 in 10.0 mi WSW 3.5 mph - N/A   Mostly Cloudy
9:15 AM 45.7 °F - 40.1 °F 81% 30.21 in 10.0 mi Calm Calm - N/A   Mostly Cloudy
9:35 AM 46.4 °F 45.2 °F 36.5 °F 68% 30.22 in 10.0 mi West 3.5 mph - N/A   Overcast
9:55 AM 46.8 °F - 37.4 °F 70% 30.23 in 10.0 mi Calm Calm - N/A   Overcast
10:15 AM 47.3 °F - 36.3 °F 66% 30.24 in 10.0 mi NNW 3.5 mph - N/A   Overcast
10:35 AM 48.0 °F - 37.2 °F 66% 30.24 in 10.0 mi North 3.5 mph - N/A   Overcast
10:55 AM 50.2 °F - 37.6 °F 62% 30.24 in 10.0 mi North 4.6 mph - N/A   Mostly Cloudy
11:15 AM 50.7 °F - 36.3 °F 58% 30.24 in 10.0 mi NNE 4.6 mph - N/A   Mostly Cloudy
11:35 AM 52.3 °F - 35.8 °F 53% 30.24 in 10.0 mi North 5.8 mph - N/A   Overcast
11:55 AM 53.4 °F - 33.4 °F 47% 30.24 in 10.0 mi NE 3.5 mph - N/A   Overcast
12:15 PM 52.5 °F - 33.1 °F 48% 30.24 in 10.0 mi ENE 3.5 mph - N/A   Mostly Cloudy
12:35 PM 54.5 °F - 33.4 °F 45% 30.24 in 10.0 mi ESE 3.5 mph - N/A   Overcast
12:55 PM 56.1 °F - 33.8 °F 43% 30.24 in 10.0 mi East 6.9 mph - N/A   Mostly Cloudy
1:15 PM 56.3 °F - 29.3 °F 36% 30.23 in 10.0 mi Calm Calm - N/A   Mostly Cloudy
1:35 PM 57.4 °F - 31.3 °F 37% 30.22 in 10.0 mi Calm Calm - N/A   Scattered Clouds
1:55 PM 57.9 °F - 32.5 °F 38% 30.21 in 10.0 mi ESE 5.8 mph - N/A   Scattered Clouds
2:15 PM 58.3 °F - 32.5 °F 38% 30.20 in 10.0 mi Calm Calm - N/A   Mostly Cloudy
2:35 PM 58.1 °F - 32.7 °F 38% 30.19 in 10.0 mi South 8.1 mph - N/A   Overcast
2:55 PM 57.9 °F - 32.4 °F 38% 30.19 in 10.0 mi South 4.6 mph - N/A   Overcast
3:15 PM 58.3 °F - 34.0 °F 40% 30.19 in 10.0 mi ESE 9.2 mph - N/A   Overcast
3:35 PM 58.8 °F - 33.6 °F 39% 30.19 in 10.0 mi SSE 6.9 mph - N/A   Overcast
3:55 PM 58.8 °F - 34.3 °F 40% 30.19 in 10.0 mi South 6.9 mph - N/A   Overcast
4:15 PM 59.2 °F - 34.9 °F 40% 30.18 in 10.0 mi South 8.1 mph - N/A   Overcast
4:35 PM 59.2 °F - 34.5 °F 40% 30.18 in 10.0 mi SSE 11.5 mph - N/A   Mostly Cloudy
4:55 PM 59.4 °F - 34.3 °F 39% 30.18 in 10.0 mi SSE 9.2 mph - N/A   Mostly Cloudy
5:15 PM 59.7 °F - 35.1 °F 40% 30.17 in 10.0 mi SSE 11.5 mph 17.3 mph N/A   Overcast
5:35 PM 59.7 °F - 35.4 °F 40% 30.17 in 10.0 mi SSE 10.4 mph - N/A   Mostly Cloudy
5:55 PM 58.8 °F - 35.8 °F 42% 30.17 in 10.0 mi SSE 8.1 mph - N/A   Mostly Cloudy
6:15 PM 55.9 °F - 36.9 °F 49% 30.17 in 10.0 mi SE 4.6 mph - N/A   Scattered Clouds
6:35 PM 56.1 °F - 37.6 °F 50% 30.18 in 10.0 mi SE 6.9 mph - N/A   Mostly Cloudy
6:55 PM 52.9 °F - 37.8 °F 56% 30.18 in 10.0 mi SE 8.1 mph - N/A   Scattered Clouds
7:15 PM 50.9 °F - 38.3 °F 62% 30.19 in 10.0 mi SSE 6.9 mph - N/A   Scattered Clouds
7:35 PM 50.4 °F - 38.7 °F 64% 30.19 in 10.0 mi SSE 8.1 mph - N/A   Mostly Cloudy
7:55 PM 48.6 °F - 38.7 °F 69% 30.20 in 10.0 mi SSE 9.2 mph - N/A   Scattered Clouds
8:15 PM 46.4 °F 42.4 °F 38.5 °F 74% 30.20 in 10.0 mi SE 8.1 mph - N/A   Scattered Clouds
8:35 PM 45.5 °F 40.8 °F 38.3 °F 76% 30.20 in 10.0 mi SE 9.2 mph - N/A   Clear
8:55 PM 46.2 °F 41.2 °F 38.7 °F 75% 30.20 in 10.0 mi SE 10.4 mph - N/A   Clear
9:15 PM 46.4 °F 41.9 °F 38.7 °F 74% 30.21 in 10.0 mi SE 9.2 mph - N/A   Clear
9:35 PM 45.7 °F 41.5 °F 38.7 °F 76% 30.22 in 10.0 mi SE 8.1 mph - N/A   Clear
9:55 PM 45.5 °F 39.9 °F 38.3 °F 76% 30.22 in 10.0 mi SE 11.5 mph - N/A   Clear
10:15 PM 45.0 °F 38.9 °F 38.3 °F 77% 30.23 in 10.0 mi SE 12.7 mph - N/A   Clear
10:35 PM 44.8 °F 39.4 °F 37.6 °F 76% 30.23 in 10.0 mi SE 10.4 mph - N/A   Clear
10:55 PM 43.7 °F 37.3 °F 36.9 °F 77% 30.23 in 10.0 mi SE 12.7 mph - N/A   Clear
11:15 PM 44.6 °F 37.8 °F 36.5 °F 73% 30.23 in 10.0 mi SE 15.0 mph - N/A   Clear
11:35 PM 45.1 °F 39.1 °F 36.1 °F 71% 30.23 in 10.0 mi SE 12.7 mph - N/A   Clear
11:55 PM 44.6 °F 38.1 °F 36.1 °F 72% 30.23 in 10.0 mi SE 13.8 mph - N/A   Clear